Location: Altoona
(40.5167°N, 78.4000°W)
Time: 12:30:32
(UTC-04:00)

Daily predictions for brighter satellites

Satellite Brightness Start Highest point End
(mag) Time Altitude Azimuth Time Altitude Azimuth Time Altitude Azimuth
HJ-1C 3.6 20:26:59 10° S 20:30:19 78° WSW 20:33:42 10° NNW
Cosmos 220 Rocket 4.0 20:26:13 10° NNW 20:30:32 68° ENE 20:34:46 10° SSE
Cosmos 2154 Rocket 4.1 20:27:30 10° S 20:33:45 90° W 20:40:01 10° N
Cosmos 2098 Rocket 4.4 20:32:41 10° SE 20:35:37 18° E 20:38:13 10° NE
Resurs 01 Rocket 2.2 20:36:25 10° SE 20:40:34 41° ENE 20:44:45 10° N
ERS-2 2.1 20:37:56 10° SSE 20:41:34 69° ENE 20:45:14 10° N
YAOGAN 6 2.9 20:38:32 10° SSE 20:42:01 48° ENE 20:45:34 10° N
Cosmos 1151 Rocket 3.3 20:38:14 10° SSE 20:42:16 45° E 20:46:22 10° NNE
Spot 2 Rocket 4.2 20:38:11 10° SE 20:42:49 36° ENE 20:47:27 10° N
Cosmos 1980 3.7 20:40:17 10° SSW 20:45:57 77° ESE 20:51:39 10° NNE
Cosmos 1666 Rocket 4.2 20:41:52 10° NNW 20:46:17 61° W 20:50:38 10° S
Thor Agena Rocket 3.6 20:42:27 10° NNE 20:47:43 72° ESE 20:52:59 10° S
Sich 1 4.0 20:44:38 10° NNW 20:48:46 50° W 20:52:53 10° SSW
SL-8 R/B 4.1 20:44:28 10° WSW 20:49:13 67° NNW 20:54:01 10° ENE
Meteor 2-3 Rocket 3.7 20:43:54 10° N 20:49:33 86° E 20:55:13 10° S
Cosmos 1933 Rocket 3.8 20:48:01 10° N 20:52:17 51° E 20:56:31 10° SSE
NOSS 3-4 (A) 4.4 20:45:51 10° NNW 20:52:29 43° NE 20:58:48 13° ESE
NOSS 3-4 (C) 4.5 20:45:58 10° NNW 20:52:34 42° NE 20:58:53 13° ESE
Cosmos 1844 Rocket 4.2 20:47:36 10° NW 20:52:44 36° WSW 20:57:49 10° S
Cosmos 1455 2.7 20:50:51 10° SSW 20:54:39 66° W 20:58:30 10° N
SJ-6B 3.7 20:51:19 10° S 20:55:14 51° W 20:59:06 10° NNW
Cosmos 2218 Rocket 4.2 20:55:37 10° SSE 21:01:47 55° E 21:08:01 10° NNE
Cosmos 2341 Rocket 4.2 20:55:26 10° S 21:01:47 82° W 21:08:09 10° N
Cosmos 1869 3.6 20:58:15 10° SSE 21:02:04 45° E 21:05:55 10° NNE
Cosmos 2333 Rocket 3.3 20:58:18 10° SW 21:03:45 48° WNW 21:09:14 10° NNE
Cosmos 1892 4.5 21:02:21 10° NNW 21:05:54 34° W 21:09:23 10° SSW
Cosmos 2219 Rocket 3.8 21:00:47 10° SW 21:06:04 40° WNW 21:11:22 10° N
Resurs 1-3 3.5 21:02:03 10° SSE 21:06:26 82° ENE 21:10:50 10° N
Cosmos 2366 rocket 4.1 21:02:57 10° SSE 21:08:59 56° E 21:15:08 10° NNE
ATLAS CENTAUR R/B 3.7 21:06:39 10° WSW 21:09:43 25° NW 21:12:57 10° N
ERS-1 Rocket 4.5 21:09:54 15° E 21:12:07 20° ENE 21:15:42 10° NNE
ATLAS 5 CENTAUR R/B 4.5 21:09:31 10° N 21:12:26 14° NNE 21:15:29 10° ENE
Cosmos 2237 Rocket 2.5 21:06:53 10° SSW 21:12:28 71° WNW 21:18:07 10° NNE
Cosmos 1939 Rocket 3.0 21:09:31 10° S 21:13:21 70° WSW 21:17:18 10° NNW
SL-8 Rocket 4.0 21:09:59 10° S 21:16:18 86° E 21:22:35 10° N
USA 186 3.0 21:16:50 10° SSW 21:18:50 27° W 21:20:55 10° NW
Cosmos 407 Rocket 3.7 21:16:08 10° N 21:21:09 53° ENE 21:24:14 22° SE
Cosmos 2278 Rocket 2.6 21:17:51 10° NNW 21:23:29 62° WSW 21:29:00 10° S
Cosmos 1339 Rocket 4.5 21:17:56 10° N 21:23:59 62° E 21:28:57 16° SSE
NOAA 11 4.2 21:21:28 13° SSE 21:26:26 81° ENE 21:31:58 10° N
Lacrosse 5 3.9 21:28:25 10° NNW 21:31:58 19° NNE 21:35:30 10° ENE
SPOT 5 4.3 21:35:32 18° ENE 21:36:08 18° ENE 21:39:08 10° NNE
Cosmos 1371 Rocket 4.4 21:30:52 10° SSW 21:36:09 66° WNW 21:41:30 10° NNE
Cosmos 405 Rocket 3.0 21:35:29 35° SE 21:36:38 46° E 21:40:25 10° NNE
Cosmos 1825 2.9 21:32:56 10° NNW 21:36:38 52° W 21:39:48 13° SSW
ASTRO E2 4.1 21:33:54 10° SW 21:37:01 22° S 21:37:01 22° S
USA 81 4.1 21:34:21 10° N 21:39:34 58° E 21:42:17 28° SSE
H-2A R/B 2.4 21:43:18 32° ESE 21:44:59 43° ENE 21:49:39 10° N
Cosmos 676 Rocket 4.2 21:39:53 10° N 21:45:02 54° ENE 21:46:57 35° SE
CZ-3B R/B 3.5 21:43:36 10° NW 21:44:31 32° NW 21:44:31 32° NW
CZ-4C R/B 2.4 21:44:58 27° SSE 21:47:06 39° ESE 21:52:21 10° NE
MetOp-B 4.3 21:47:56 33° SE 21:50:06 56° ENE 21:55:20 10° N
Meteor 2-10 Rocket 4.0 21:47:59 10° SSW 21:53:43 73° W 21:59:34 10° N
ARGOS 3.1 21:51:35 34° SSE 21:53:58 70° ENE 21:59:18 10° N
Cosmos 1862 3.2 21:52:06 10° N 21:56:09 78° E 21:56:57 55° SSE
Cosmos 1943 Rocket 4.0 21:53:40 10° NNE 21:57:00 16° NE 21:58:32 14° ENE
Cosmos 2056 Rocket 4.3 21:51:59 10° SW 21:57:17 55° WNW 22:02:36 10° N
Cosmos 1452 Rocket 3.5 21:55:08 27° S 21:57:52 59° ESE 22:03:02 10° NNE
SL-16 R/B 2.6 21:59:22 10° SSW 22:04:59 65° WNW 22:10:38 10° NNE
Helios 1B rocket 4.2 22:03:14 10° NE 22:04:56 20° NE 22:04:56 20° NE
Cosmos 1140 Rocket 3.4 22:02:00 10° NNW 22:07:11 72° ENE 22:08:24 51° SE
Gblst 52 Del rocket 3.9 22:08:23 10° SW 22:13:56 70° SE 22:19:25 10° ENE
Resurs 01 Rocket 4.1 22:14:13 10° SW 22:17:13 18° W 22:20:14 10° NW
Cosmos 2344 3.5 22:12:37 10° SSW 22:20:14 83° ESE 22:28:30 10° NE
Cosmos 1000 Rocket 4.4 22:16:12 10° N 22:22:26 77° E 22:24:15 49° SSE
Cosmos 1741 Rocket 4.4 22:20:47 10° N 22:25:56 46° ENE 22:26:10 46° ENE
Cosmos 1954 Rocket 4.0 22:21:44 10° NNW 22:26:56 75° WSW 22:27:53 58° S
Cosmos 1821 Rocket 3.9 22:26:24 42° S 22:28:46 82° E 22:35:05 10° N
Cosmos 1603 3.5 22:31:54 66° SE 22:32:22 70° ESE 22:37:58 10° NNE
Cosmos 1943 4.3 22:34:58 30° ENE 22:34:58 30° ENE 22:38:17 10° NE
Helios 1A 3.2 22:37:13 67° NNW 22:37:13 67° NNW 22:40:54 10° NNW
Terra 2.8 22:40:06 36° NE 22:40:06 36° NE 22:43:44 10° N
Cosmos 2369 Rocket 2.7 22:34:58 10° NNW 22:40:25 45° ENE 22:40:37 45° ENE
Cosmos 1933 4.4 22:45:41 40° W 22:45:54 41° WNW 22:49:47 10° N
USA 267 3.6 22:41:29 10° NE 22:46:12 44° E 22:46:12 44° E
Cosmos 2123 Rocket 3.9 22:42:01 10° N 22:48:19 71° E 22:48:49 68° ESE
ERS-1 Rocket 3.5 22:49:53 46° SW 22:50:31 49° W 22:55:24 10° NNW
ATLAS 5 CENTAUR R/B 2.7 22:52:32 10° NNW 22:58:23 53° NE 22:58:49 52° ENE
Cosmos 1733 Rocket 3.9 22:57:14 10° NNW 23:00:32 48° NNW 23:00:32 48° NNW
Meteor 1-14 Rocket 4.1 22:56:43 10° N 23:02:01 82° N 23:02:01 82° N
Meteor 2-17 Rocket 4.3 23:02:06 81° S 23:02:27 90° W 23:08:37 10° N
GEOS 3 Rocket 3.7 23:02:38 10° NNE 23:08:00 75° NW 23:08:06 74° WNW
CZ-2C R/B 4.0 23:14:32 37° NNE 23:14:32 37° NNE 23:17:45 10° N
SPOT 5 3.9 23:14:46 39° WNW 23:14:46 39° WNW 23:18:10 10° NNW
Lacrosse 5 2.5 23:10:45 10° NW 23:14:47 52° N 23:14:47 52° N
Meteor 1-25 Rocket 4.4 23:10:44 10° NNW 23:16:07 70° WNW 23:16:07 70° WNW
SPOT 1/Viking Rocket 4.2 23:16:47 49° W 23:16:47 49° W 23:21:35 10° NNW
Cosmos 1605 Rocket 3.9 23:19:14 82° WSW 23:19:20 83° W 23:25:46 10° N
USA 234 4.5 23:18:28 25° ENE 23:21:10 34° NNE 23:26:56 10° NW
ATLAS 2A CENTAUR R/B 4.3 23:10:03 10° WSW 23:22:31 35° SSW 23:22:31 35° SSW
H-2A R/B 3.9 23:23:56 20° WSW 23:24:34 21° W 23:28:17 10° NW
CZ-4C R/B 3.7 23:30:53 10° WSW 23:35:38 33° NW 23:41:02 10° NNE
Cosmos 1943 Rocket 2.8 23:35:52 10° NNW 23:40:03 53° NNW 23:40:03 53° NNW
BREEZE-M DEB (TANK) 4.1 23:23:34 10° WNW 23:44:11 71° SW 23:44:19 70° SW
